Olympia, WA
on Sunday, January 13, 2013

Sunday
Previous Day Next Day
Daily Summary
 ActualAverageRecord
Temperature
Mean Temperature °F 40°F  
Max Temperature 36°F 46°F 57°F (1994)
Min Temperature 18°F 34°F 11°F (1963)
Degree Days
Heating Degree Days 38 25  
Month to date heating degree days 367 335  
Since 1 July heating degree days 2530 2605  
Cooling Degree Days 0 0  
Month to date cooling degree days 0 0  
Year to date cooling degree days 0 0  
Moisture
Dew Point 22°F   
Average Humidity 82    
Maximum Humidity 100    
Minimum Humidity 64    
Precipitation
Precipitation 0.00 in 0.25 in 2.08 in (1970)
Month to date precipitation 2.76 3.35  
Year to date precipitation 2.76 3.35  
Wind
Wind Speed 1 mph   
Max Wind Speed 7 mph   
Max Gust Speed 8 mph   
Visibility 5 miles   
Events Fog   

Key: T is trace of precipitation, MM is missing value
Source: NWS Daily Summary
Time(PST)TemperatureDew PointHumidity Pressure Visibility Wind DirectionWind SpeedGust SpeedPrecipitationEvents Conditions
12:01 AM 21.0°F 19.0°F 92% 30.44 in 5.0 miles Calm Calm - N/A   Clear
12:54 AM 21.0°F 19.0°F 92% 30.45 in 4.0 miles Calm Calm - N/A   Clear
1:54 AM 21.0°F 19.9°F 96% 30.46 in 6.0 miles Calm Calm - N/A   Mostly Cloudy
2:09 AM 19.9°F 17.1°F 89% 30.45 in 6.0 miles Calm Calm - N/A   Scattered Clouds
2:54 AM 21.0°F 19.0°F 92% 30.45 in 5.0 miles Calm Calm - N/A   Clear
3:54 AM 19.0°F 16.0°F 88% 30.46 in 6.0 miles Calm Calm - N/A   Clear
4:54 AM 19.9°F 18.0°F 92% 30.45 in 5.0 miles Calm Calm - N/A   Mostly Cloudy
5:42 AM 21.9°F 19.9°F 92% 30.44 in 5.0 miles Calm Calm - N/A   Overcast
5:54 AM 23.0°F 21.0°F 92% 30.45 in 6.0 miles Calm Calm - N/A   Overcast
6:54 AM 24.1°F 23.0°F 96% 30.47 in 7.0 miles Calm Calm - N/A   Overcast
7:54 AM 24.1°F 21.9°F 91% 30.49 in 7.0 miles Calm Calm - N/A   Scattered Clouds
8:54 AM 24.1°F 21.9°F 91% 30.49 in 5.0 miles Calm Calm - N/A   Scattered Clouds
9:54 AM 27.0°F 26.1°F 96% 30.49 in 6.0 miles Calm Calm - N/A   Clear
10:54 AM 30.9°F 27.0°F 85% 30.50 in 10.0 miles Calm Calm - N/A   Clear
11:54 AM 33.1°F 28.0°F 82% 30.47 in 10.0 miles Calm Calm - N/A   Partly Cloudy
12:54 PM 36.0°F 26.1°F 67% 30.46 in 10.0 miles North 3.5 mph - N/A   Partly Cloudy
1:54 PM 36.0°F 26.1°F 67% 30.46 in 10.0 miles Calm Calm - N/A   Scattered Clouds
2:54 PM 36.0°F 26.1°F 67% 30.47 in 10.0 miles North 5.8 mph - N/A   Partly Cloudy
3:54 PM 35.1°F 25.0°F 67% 30.46 in 10.0 miles NNE 3.5 mph - N/A   Partly Cloudy
4:54 PM 32.0°F 25.0°F 75% 30.47 in 10.0 miles NNE 3.5 mph - N/A   Clear
5:54 PM 28.9°F 24.1°F 82% 30.48 in 10.0 miles Calm Calm - N/A   Clear
6:54 PM 27.0°F 24.1°F 89% 30.49 in 8.0 miles Calm Calm - N/A   Clear
7:54 PM 25.0°F 24.1°F 96% 30.49 in 6.0 miles Calm Calm - N/A   Clear
8:54 PM 25.0°F 24.1°F 96% 30.50 in 4.0 miles Calm Calm - N/A   Clear
9:38 PM 25.0°F 24.1°F 96% 30.48 in 2.5 miles Calm Calm - N/A   Clear
9:46 PM 21.9°F 21.9°F 100% 30.48 in 1.2 miles Calm Calm - N/A   Clear
9:54 PM 23.0°F 21.0°F 92% 30.49 in 1.0 miles Calm Calm - N/A   Clear
10:03 PM 23.0°F 21.2°F 93% 30.48 in 0.2 miles Calm Calm - N/A Fog Light Freezing Fog
10:16 PM 21.9°F 21.0°F 96% 30.48 in 1.2 miles Calm Calm - N/A   Partly Cloudy
10:32 PM 23.0°F 21.9°F 96% 30.49 in 2.0 miles Calm Calm - N/A   Partly Cloudy
10:43 PM 24.1°F 21.9°F 91% 30.49 in 1.2 miles Calm Calm - N/A   Partly Cloudy
10:45 PM 23.0°F 21.2°F 93% 30.49 in 0.8 miles Calm Calm - N/A   Mist
10:54 PM 21.9°F 21.0°F 96% 30.51 in 0.2 miles Calm Calm - N/A Fog Light Freezing Fog
11:06 PM 23.0°F 21.0°F 92% 30.50 in 1.0 miles Calm Calm - N/A   Mist
11:08 PM 24.1°F 21.9°F 91% 30.50 in 2.0 miles Calm Calm - N/A   Partly Cloudy
11:17 PM 23.0°F 21.2°F 93% 30.49 in 1.8 miles Calm Calm - N/A   Partly Cloudy
11:20 PM 23.0°F 21.0°F 92% 30.49 in 3.0 miles Calm Calm - N/A   Clear
11:54 PM 21.9°F 19.9°F 92% 30.50 in 2.5 miles South 3.5 mph - N/A   Clear
Moon Phase
Jan. 13 Jan. 18 Jan. 26 Feb. 03 Feb. 10
Sunrise:07:53 AM (PST) Moon Rise:08:44 AM (PST)1/13
Sunset:04:47 PM (PST) Moon Set:07:45 PM (PST)1/13

Copyright © 2014 The Weather Underground, Inc.